STARLINK-31886, 59662

Orbit data source: Space-Track

STARLINK-31886, 59662 is a payload satellite owned by SpaceX/Seattle (US) in LEO that was launched on Mon, 06 May 2024 UTC via an FALCON 9 launch vehicle from the Air Force Eastern Test Range (AFETR). Payload-class satellites include a variety of spacecraft equipped with specific instruments for various scientific and technological missions. These include communications satellites like Starlink; space stations such as the ISS; scientific satellites like the Hubble; Earth observation satellites from companies like Planet Labs, Umbra, and HawkEye 360; GPS; miniature CubeSats for education and research; and military/defense satellites.

Loading next visibility...
Identifier
59662, 2024-084J
Orbit
LEO
Country
Flag of USUS
Related business
Manufacturer
SpaceX/Seattle
Mission
Operational spacecraft
Bus & Motor
STARLINK V2M, Unknown motor
Mass
730 kg wet, ~700 kg dry
Launch date (UTC)
2024-05-06 (1 year ago)
Launch vehicle
FALCON 9
Launch site
Air Force Eastern Test Range (AFETR)
Object type
Payload
Rocket body
Debris
Shape & HBR
Unknown
Radar Cross Section
Large (>1 m²)

Expand to show TLE details & history
Last TLE update: 1 day ago

TLE from 1 day ago
0 STARLINK-31886
1 59662U 24084J   25241.46832116  .00001221  00000-0  53905-4 0  9993
2 59662  43.0015  47.5093 0001357 270.4466  89.6230 15.27579620 74975
Epoch: 2025-08-29T11:14Z
TLE epoch observation values (Epoch: 2025-08-29T11:14:22.948Z)
Latitude
-0.00002°
Longitude
-99.00287°
Altitude
482.82 km
Speed
7.626 km/s
True Right ascension
03h 10m 02s
True Declination
0° 00' 00"
Sunlit
Object was in daylight at epoch
Visualization orbit readout
Latitude
Unknown
Longitude
Unknown
Altitude
Unknown
Speed
Unknown
Apparent Right ascension
Unknown
Apparent Declination
Unknown
Sunlit
N/A
Visualization observer readout
Local Sidereal Time
05:22:32
Azimuth
Unknown
Elevation
Unknown
Doppler factor
Unknown
Orbital elements
Apogee altitude
485.926 km
Perigee altitude
484.064 km
Semi-major axis
6,863.132 km
Eccentricity
0.00014
Inclination
43.0015°
RAAN
47.5093°
Arg. of periapsis
270.4466°
True anomaly
89.63855°
Mean anomaly
89.623°
Eccentric anomaly
89.63077°
Mean motion
3.81733 °/min
Orbital period
94.31 mins
BSTAR
0.000053905
Loading maneuver chart data...
Computing Atmospheric mass density...
Loading historical data...
Loading historical data...
Loading historical data...
Loading historical data...
Loading historical data...
Loading historical data...
Loading historical data...

Documentation

Showing up to 5 results
|